User: anonymous   Login
Location: Buckeye Ditch
(40.9104°N, 122.9517°W)
Time: 20:54:38
(UTC+00:00)
Language:

FENGYUN 1C DEB - Orbit

View from above orbital plane
View from above orbital plane
View from above satellite
View from above satellite

Ground track
Ground track

The orbit data is extracted from the following two-line orbital elements,

1 30309U 99025ZW  24263.42794133  .00000765  00000-0  60274-3 0  9990
2 30309  99.2870 314.4785 0092993 330.7741  28.8234 13.92956612897871
Epoch (UTC): 19 September 2024 10:16:14
Eccentricity: 0.0092993
inclination: 99.2870°
perigee height: 850 km
apogee height: 986 km
right ascension of ascending node: 314.4785°
argument of perigee: 330.7741°
revolutions per day: 13.92956612
mean anomaly at epoch: 28.8234°
orbit number at epoch: 89787

The dashed part of the orbit path shows where the satellite is in the earth's shadow,  

DLR